Main page
Satellite images Climate Cyclones Lightning AirportsFAQ Languages Contact Newsletter About
Weather : Europe Africa North America South America Asia Australia-Oceania Others

, Sanya, Sanya Phoenix International Airport

latitude: , longitude: China, elevation: 18-18N m


METAR: ZJSY 211900Z 35002MPS 320V020 9999 FEW040 BKN066 25/23 Q1015 NOSIG